OBJECT AB, 61760

Orbit data source: Space-Track

You're viewing an uncataloged RSO

Recently launched and/or uncataloged RSOs may have evolving metadata. Metadata may include the following, but is not limited to: Owner, Manufacturer, Bus, Motor, and Mission.

OBJECT AB, 61760 is a satellite in SSO that was launched on Mon, 04 Nov 2024 UTC via a SOYUZ-2-1B launch vehicle from the Vostochny Cosmodrome (VOSTO). Unknown objects in Earth's orbit typically refer to objects detected orbiting the Earth but have not yet been identified or cataloged. These objects could be anything from previously untracked satellites, spent rocket stages, debris from satellite collisions, or even natural meteoroids temporarily captured by Earth's gravity.

Loading next visibility...
Identifier
61760, 2024-199AB
Orbit
SSO
Country
Flag of TBDTBD
Related business
Manufacturer
Sputniks
Mission
Operational Commercial Communications
Bus & Motor
CUBESAT 3U?, Unknown motor
Mass
3 kg wet, 3 kg dry
Launch date (UTC)
2024-11-04 (2 years ago)
Launch vehicle
SOYUZ-2-1B
Launch site
Vostochny Cosmodrome (VOSTO)
Object type
Unknown
Shape & HBR
Box, 0.2 m
Radar Cross Section
0.035 m², Medium (>0.1 m² and < 1m²)

Expand to show TLE details & history
Last TLE update: 10 hours ago

TLE from 10 hours ago
0 OBJECT AB
1 61760U 24199AB  26264.23196604  .00303511  37284-4  85567-3 0  9991
2 61760  97.2674 148.2936 0003787 152.1423 208.0056 15.93475049152919
Epoch: 2026-09-21T05:34Z
TLE epoch observation values (Epoch: 2026-09-21T05:34:01.865Z)
Latitude
Longitude
64.67107°
Altitude
297.991 km
Speed
7.728 km/s
True Right ascension
09h 53m 10s
True Declination
0° 00' 00"
Sunlit
Object was in daylight at epoch
Visualization orbit readout
Latitude
Unknown
Longitude
Unknown
Altitude
Unknown
Speed
Unknown
Apparent Right ascension
Unknown
Apparent Declination
Unknown
Sunlit
N/A
Visualization observer readout
Local Sidereal Time
08:59:58
Azimuth
Unknown
Elevation
Unknown
Doppler factor
Unknown
Orbital elements
Apogee altitude
291.954 km
Perigee altitude
286.904 km
Semi-major axis
6,667.566 km
Eccentricity
0.00038
Inclination
97.2674°
RAAN
148.2936°
Arg. of periapsis
152.1423°
True anomaly
207.98523°
Mean anomaly
208.0056°
Eccentric anomaly
207.99541°
Mean motion
3.9865 °/min
Orbital period
90.3 mins
BSTAR
0.00085567
Loading maneuver chart data...
Computing Atmospheric mass density...
Loading historical data...
Loading historical data...
Loading historical data...
Loading historical data...
Loading historical data...
Loading historical data...
Loading historical data...

Documentation

Showing up to 5 results
|